Theta_e
289 285 284 289 292 292 291 290 289 292 297 298 297 298 300 302 302 303 304 306 307 308 312 310 311 312 312 312 312 312 315 321 328 327 326 326 328 328 328 332 334 334 334 333
286 283 289 291 291 290 289 287 286 291 295 294 293 292 294 297 299 301 303 304 305 306 306 308 309 309 310 311 313 314 317 324 327 328 325 327 325 325 327 329 333 334 334 333
282 286 292 290 288 288 287 287 287 288 293 294 291 290 293 296 297 299 301 303 305 304 304 307 307 307 308 312 316 319 322 327 328 327 325 323 324 324 324 325 327 331 333 333
283 288 288 286 286 287 282 290 291 290 288 284 290 282 291 294 295 296 297 299 300 302 305 306 306 307 308 313 323 325 328 329 327 327 325 326 323 322 322 324 325 328 331 331
283 284 284 284 285 289 285 291 289 289 286 284 285 282 286 291 291 294 297 299 300 300 303 303 305 307 308 317 324 327 328 328 327 326 327 324 322 321 322 324 324 326 328 329
285 289 287 286 289 290 291 287 286 286 284 277 284 284 285 289 292 295 297 299 300 299 300 302 304 305 312 323 326 327 327 326 327 327 325 324 323 322 322 322 322 323 325 326
287 287 288 289 284 286 285 280 275 275 275 277 286 283 287 292 294 296 296 297 298 299 300 301 304 312 317 323 325 327 327 324 326 326 325 324 323 323 323 322 322 322 323 324
282 279 286 289 286 282 281 280 276 274 275 277 286 281 286 294 298 299 299 298 298 298 298 300 304 312 320 323 325 327 326 323 324 324 323 323 323 322 322 323 323 323 324 325
283 283 292 292 290 289 283 279 283 278 279 276 281 285 291 295 296 297 297 297 297 297 299 300 306 317 322 324 323 326 325 323 323 322 322 322 323 323 322 323 324 324 324 325
287 281 289 291 293 289 286 287 279 276 274 274 278 281 284 290 292 295 296 296 297 299 301 300 315 321 324 324 324 325 325 323 323 323 323 323 323 323 323 324 324 324 325 327
287 283 284 289 284 282 284 281 282 280 278 276 275 279 289 291 293 293 294 295 298 309 311 313 321 323 324 324 324 323 323 322 322 323 323 322 322 323 323 323 324 325 326 327
288 283 280 283 289 290 286 283 283 278 278 280 277 279 292 292 292 293 294 298 303 314 314 320 321 323 323 323 323 323 322 322 322 323 322 322 322 322 322 323 325 325 325 326
287 281 278 280 284 288 284 286 284 285 284 280 278 279 292 293 293 295 296 299 301 315 315 320 321 322 323 323 323 323 323 322 321 322 321 321 321 321 322 324 325 326 325 325
294 285 280 275 279 284 281 284 285 285 280 281 283 285 290 293 293 296 297 302 300 313 317 320 322 321 323 324 324 323 322 322 321 322 321 321 321 321 322 323 325 325 325 324
287 283 283 284 286 286 285 285 285 283 284 281 285 286 289 292 293 296 298 303 309 310 317 319 321 321 323 323 324 324 322 321 322 322 322 322 322 322 323 323 324 325 325 325
286 281 284 282 285 285 284 286 286 286 286 285 285 285 293 296 298 302 300 304 309 311 318 320 321 321 323 324 323 324 322 321 323 323 323 323 322 323 323 323 324 324 324 325
284 284 280 277 284 284 278 284 286 287 289 287 283 288 294 296 301 302 303 308 310 312 318 320 322 322 324 325 324 322 321 321 322 323 324 325 324 323 323 323 323 322 322 323
286 284 284 279 282 271 285 294 294 290 290 291 291 291 300 301 303 304 307 309 311 314 319 321 322 323 324 325 324 322 321 322 322 323 325 326 324 323 323 323 322 320 320 321
290 286 281 278 275 283 287 291 291 289 289 296 296 298 300 301 302 305 311 312 313 316 321 322 324 324 325 324 323 321 320 321 322 323 324 325 324 323 323 322 320 320 320 319
291 288 283 282 277 276 285 288 290 292 285 298 297 298 299 299 297 302 307 307 313 317 322 322 324 324 323 322 322 320 319 320 321 323 325 325 324 324 323 321 319 320 321 318
286 285 280 281 280 284 288 290 291 285 287 298 298 299 300 297 298 302 304 309 316 318 321 323 323 322 322 320 321 320 319 320 323 324 325 323 324 324 323 320 320 320 318 317
284 283 283 283 281 278 293 289 287 291 298 299 298 299 301 302 302 302 304 310 314 318 320 322 322 321 319 320 321 319 318 322 323 324 324 322 322 324 322 321 319 320 318 316
283 287 284 284 284 293 295 291 294 297 299 298 299 302 303 303 303 303 303 310 314 319 321 322 320 317 317 320 321 317 319 320 322 322 322 322 323 323 321 320 318 319 318 317
288 293 288 288 292 294 297 299 300 301 300 300 302 303 304 303 303 302 305 311 314 320 322 322 318 316 315 319 320 321 317 320 322 320 320 322 322 321 321 321 320 320 319 320
289 293 290 289 293 295 297 298 299 300 302 301 302 303 303 304 304 304 307 312 315 319 323 321 319 318 317 319 318 318 318 319 319 320 320 322 321 321 320 319 319 321 322 319
289 289 289 288 294 294 294 297 300 299 300 301 302 303 305 305 304 304 309 311 316 319 321 321 320 319 317 318 318 318 318 319 319 318 319 320 321 321 321 316 314 296 299 301
Wind_Speed
5 4 15 28 24 8 5 10 2 4 6 6 19 24 16 8 9 15 17 20 21 21 18 8 9 10 10 10 10 8 8 7 8 4 4 3 4 3 3 5 7 9 9 10
5 16 11 1 5 4 3 1 3 4 6 4 7 11 9 7 10 11 18 18 15 16 8 10 10 10 9 10 11 8 6 8 8 5 3 4 4 3 3 3 5 8 10 10
8 10 10 8 5 8 7 10 3 2 8 7 6 14 12 8 10 13 14 15 13 11 12 12 12 10 9 10 9 6 6 8 7 7 6 5 6 4 3 3 3 5 8 8
6 7 5 3 6 4 5 6 5 7 4 9 3 15 17 15 16 10 14 15 13 10 12 14 10 12 10 10 4 4 7 10 8 9 7 10 5 5 3 4 3 4 5 5
8 3 1 4 6 6 11 6 6 4 4 2 2 6 3 6 12 17 17 18 16 17 17 14 13 13 10 5 6 6 7 8 8 7 9 7 7 4 3 3 6 3 3 4
8 3 4 7 5 8 3 6 1 2 3 4 7 8 17 10 18 15 14 15 12 10 10 10 10 8 6 4 5 6 8 6 8 7 7 9 11 9 7 4 4 3 3 3
5 7 5 4 3 1 2 5 2 2 3 10 11 10 21 8 9 5 6 8 9 10 9 9 9 7 5 6 6 6 8 7 7 8 7 8 9 8 9 7 5 6 4 3
3 2 4 5 10 8 7 8 6 7 5 5 11 15 9 13 24 22 14 9 9 9 9 10 10 7 7 7 8 8 9 9 8 8 7 7 8 5 4 4 4 4 3 4
4 3 11 6 1 9 4 4 6 3 3 2 6 8 11 12 17 9 7 4 9 11 11 11 8 7 9 9 9 11 10 8 7 8 8 7 7 7 6 6 4 3 4 3
3 1 6 9 7 3 4 5 3 2 4 5 5 7 10 5 7 8 8 10 12 12 10 9 5 9 8 10 9 10 10 10 8 9 8 7 7 6 6 5 5 5 4 4
5 2 5 1 3 1 6 3 1 4 5 4 3 7 8 14 2 5 7 8 10 13 11 0 8 9 10 11 11 10 11 11 9 8 7 8 6 6 5 5 4 4 4 5
3 1 3 6 7 3 2 4 1 3 5 7 2 9 3 5 5 7 9 13 12 6 3 3 8 11 10 11 11 11 10 11 9 8 8 7 6 5 5 5 5 5 5 4
3 2 3 5 2 3 2 2 4 2 0 6 7 7 3 8 11 11 13 13 11 6 1 5 7 7 9 10 10 10 10 9 7 8 8 6 6 5 5 5 5 4 5 5
6 3 5 5 1 3 4 4 4 4 2 4 19 14 20 24 18 15 18 11 8 7 5 7 6 5 7 11 11 10 8 9 8 8 7 6 6 5 5 5 5 5 5 5
5 5 6 10 13 13 14 13 12 11 12 9 8 7 6 23 18 15 11 12 11 7 7 7 8 6 6 10 11 10 9 9 8 8 7 6 5 5 5 5 5 5 4 4
2 4 5 15 12 15 17 16 16 17 15 20 17 20 10 21 10 12 12 13 13 12 11 10 11 10 10 11 12 10 10 9 8 8 7 6 6 5 5 5 5 5 4 4
3 3 1 5 5 2 9 15 19 19 16 15 19 9 14 11 14 16 14 11 12 15 13 14 14 14 11 10 12 11 10 8 8 8 7 7 6 6 5 5 5 4 5 4
4 5 3 4 2 5 4 1 12 18 17 17 10 5 4 9 15 19 20 15 13 16 13 14 14 13 13 10 10 9 10 9 8 7 8 7 6 6 5 6 5 4 4 4
14 7 3 4 4 9 9 4 8 6 4 3 4 6 10 12 15 16 8 7 11 11 11 12 12 12 12 12 11 11 10 9 8 8 8 8 8 7 6 6 5 3 4 3
4 13 7 4 4 4 2 4 10 11 5 6 7 7 10 12 4 5 10 15 12 7 12 12 13 13 13 11 12 12 10 10 10 8 9 9 8 8 7 6 6 3 3 4
4 2 10 10 6 4 4 15 8 5 2 6 6 8 9 6 6 17 21 13 9 6 7 10 13 13 12 11 12 12 10 11 11 9 7 7 7 7 7 6 3 5 6 6
4 5 2 3 3 2 5 9 3 7 10 7 8 11 11 13 15 15 15 10 8 7 9 13 12 11 10 12 12 11 12 10 8 8 8 6 7 6 6 8 4 6 7 6
3 3 4 2 4 6 4 6 12 14 11 6 9 13 13 16 16 17 12 9 6 6 9 10 11 10 9 11 12 12 9 8 9 8 7 6 7 6 7 8 7 6 5 5
3 3 3 6 3 10 6 4 8 12 5 8 11 12 13 15 17 16 10 7 6 2 7 7 11 11 10 10 10 10 10 10 10 9 7 7 8 7 6 5 5 7 5 4
4 5 5 5 7 14 4 12 12 12 4 7 11 11 13 15 17 14 8 7 8 4 5 6 8 8 9 11 9 9 11 11 9 8 8 7 6 7 7 5 3 5 4 4
3 4 3 4 12 5 12 13 15 12 9 10 12 15 16 17 16 11 7 6 8 6 5 7 5 4 7 9 11 11 12 12 11 8 7 7 7 6 6 6 4 8 3 6
Wind_Direction
265 198 212 208 213 220 57 233 270 219 228 188 227 255 261 252 249 263 266 266 270 273 280 268 272 274 289 286 272 241 189 168 142 134 141 131 166 157 152 177 171 170 166 170
296 239 235 278 201 219 279 236 221 290 261 198 271 278 280 252 253 244 252 260 262 269 288 275 269 268 268 268 274 267 204 169 162 151 141 138 142 146 136 160 170 166 170 175
223 254 215 203 196 201 216 230 210 219 334 293 302 284 267 252 237 246 247 249 253 253 257 265 262 261 276 272 272 264 184 154 141 134 116 88 87 78 96 129 157 179 170 166
222 249 204 192 238 169 205 174 204 222 177 254 66 282 268 271 263 242 252 256 258 233 243 251 256 270 254 260 239 190 161 145 143 148 134 153 142 146 147 154 149 155 163 155
226 215 110 216 183 193 236 187 204 209 196 211 177 277 291 194 260 251 253 254 248 234 240 244 241 244 266 229 206 170 149 140 139 141 155 133 107 94 111 117 129 126 127 145
237 282 167 194 220 195 207 154 166 109 133 243 183 204 276 244 242 260 257 259 251 249 247 249 252 255 252 185 159 149 143 133 131 135 131 128 125 128 127 126 131 134 122 125
241 233 226 171 212 3 184 85 107 133 212 227 177 186 241 261 288 186 279 282 269 262 261 256 260 243 216 178 151 137 132 126 129 125 129 127 129 141 147 152 147 143 138 148
324 294 179 200 194 189 182 166 168 178 191 195 178 226 242 226 249 264 287 287 287 295 265 251 246 227 183 156 141 130 130 122 121 128 129 122 129 130 119 129 137 147 146 154
313 313 328 9 307 149 186 156 207 40 284 103 223 287 291 274 281 274 309 319 289 274 272 261 234 180 158 148 136 135 130 120 126 124 112 112 120 120 132 136 128 132 135 170
306 254 158 298 343 264 156 175 126 15 208 237 260 253 240 326 272 313 345 324 305 292 292 261 178 154 145 138 132 123 131 131 129 123 121 125 125 122 128 131 140 141 146 144
359 29 302 66 171 111 8 332 142 155 172 212 299 260 221 213 308 17 310 308 316 320 321 65 148 145 142 129 128 127 123 126 126 128 122 121 123 125 133 138 138 148 145 143
354 356 275 261 276 301 182 246 120 208 247 252 168 265 278 113 73 20 349 336 328 316 338 139 153 143 139 130 132 130 132 133 138 135 124 124 128 132 136 131 150 145 144 148
318 302 297 301 341 35 135 152 213 160 90 230 235 243 290 323 340 346 339 328 324 324 89 150 147 146 138 131 131 131 135 133 132 126 121 127 130 137 141 154 145 138 136 133
260 211 227 223 59 23 299 298 292 232 234 278 245 288 304 306 322 332 322 322 307 271 211 171 140 141 146 138 140 141 129 137 133 127 132 138 153 149 156 148 139 133 144 140
192 258 251 260 271 272 266 260 260 244 245 246 299 293 319 302 307 300 296 294 303 278 211 177 152 153 169 144 144 146 142 145 137 137 143 158 151 145 147 140 127 125 151 153
291 253 280 281 258 248 254 251 246 249 246 254 260 270 261 265 307 303 292 296 300 302 201 182 162 164 167 164 150 149 150 147 141 150 157 146 144 152 148 139 120 131 144 148
225 194 240 258 275 312 274 239 231 239 232 223 236 238 255 279 304 293 294 294 294 289 202 183 176 166 167 174 153 154 155 142 151 155 147 158 164 153 149 128 120 135 143 124
219 190 208 271 278 247 216 325 305 246 230 224 269 243 256 279 287 288 275 270 283 281 187 181 169 169 162 164 155 139 143 152 153 156 160 156 165 144 137 126 133 133 127 135
218 220 256 261 216 283 306 32 342 343 273 209 318 330 310 306 300 274 225 254 272 272 179 181 169 161 149 157 156 147 149 154 155 170 163 157 168 146 143 143 148 136 128 122
270 218 202 205 254 274 20 323 308 308 242 53 18 315 303 318 246 251 333 322 298 262 179 169 158 153 150 158 155 149 158 159 169 176 166 169 162 155 157 153 145 132 127 122
296 179 227 247 250 252 340 313 291 222 35 341 318 319 334 313 278 293 297 294 282 250 167 153 151 153 154 153 159 161 160 175 181 174 155 162 150 154 147 136 122 127 122 121
318 308 347 285 263 337 334 321 5 305 304 324 306 324 323 318 311 304 300 295 296 200 155 153 155 154 144 162 160 164 176 181 154 158 161 140 133 148 141 134 120 127 132 130
344 344 306 275 269 269 290 238 260 278 291 311 320 316 331 320 314 308 305 305 307 243 161 149 147 137 142 166 166 169 181 146 148 152 152 136 133 138 139 136 137 136 138 144
286 339 299 312 270 318 314 268 277 303 360 335 310 324 323 315 305 308 308 300 5 333 160 130 132 146 156 168 171 175 151 150 153 154 141 139 141 141 132 127 143 152 157 150
240 307 295 266 291 319 324 331 322 315 344 354 325 314 308 318 319 307 295 348 10 349 115 130 135 163 172 172 164 153 153 151 158 150 145 145 143 151 133 118 152 157 168 158
222 249 324 303 310 295 293 310 323 338 357 349 328 320 329 336 314 293 307 11 13 349 122 102 103 188 166 185 166 160 158 158 152 145 149 153 153 148 143 150 130 48 43 142